Location: Arcueil
(48.7999°N, 2.3326°E)
Time: 20:19:27
(UTC+00:00)

EO-79 - Pass Details

Date: 23 June 2024
Orbit: 555 x 577 km, 98.0° (Epoch: 18 July)

Event Time Altitude Azimuth Distance (km) Brightness Sun altitude
Rises 02:34:05 0° 22° (NNE) 2,757 ? -9.3°
Reaches altitude 10° 02:36:26 10° 34° (NE) 1,853 ? -9.1°
Maximum altitude 02:39:59 30° 96° (E) 1,020 ? -8.7°
Drops below altitude 10° 02:43:29 10° 159° (SSE) 1,835 ? -8.4°
Sets 02:45:48 0° 170° (S) 2,724 ? -8.1°
